Year,Month,Day,Hour,Minute,Value (Times are PST for insolation in W/m^2)
2016,12,19,00,00,0.00
2016,12,19,00,01,0.00
2016,12,19,00,02,0.00
2016,12,19,00,03,0.00
2016,12,19,00,04,0.00
2016,12,19,00,05,0.00
2016,12,19,00,06,0.00
2016,12,19,00,07,0.00
2016,12,19,00,08,0.00
2016,12,19,00,09,0.00
2016,12,19,00,10,0.00
2016,12,19,00,11,0.00
2016,12,19,00,12,0.00
2016,12,19,00,13,0.00
2016,12,19,00,14,0.00
2016,12,19,00,15,0.00
2016,12,19,00,16,0.00
2016,12,19,00,17,0.00
2016,12,19,00,18,0.00
2016,12,19,00,19,0.00
2016,12,19,00,20,0.00
2016,12,19,00,21,0.00
2016,12,19,00,22,0.00
2016,12,19,00,23,0.00
2016,12,19,00,24,0.00
2016,12,19,00,25,0.00
2016,12,19,00,26,0.00
2016,12,19,00,27,0.00
2016,12,19,00,28,0.00
2016,12,19,00,29,0.00
2016,12,19,00,30,0.00
2016,12,19,00,31,0.00
2016,12,19,00,32,0.00
2016,12,19,00,33,0.00
2016,12,19,00,34,0.00
2016,12,19,00,35,0.00
2016,12,19,00,36,0.00
2016,12,19,00,37,0.00
2016,12,19,00,38,0.00
2016,12,19,00,39,0.00
2016,12,19,00,40,0.00
2016,12,19,00,41,0.00
2016,12,19,00,42,0.00
2016,12,19,00,43,0.00
2016,12,19,00,44,0.00
2016,12,19,00,45,0.00
2016,12,19,00,46,0.00
2016,12,19,00,47,0.00
2016,12,19,00,48,0.00
2016,12,19,00,49,0.00
2016,12,19,00,50,0.00
2016,12,19,00,51,0.00
2016,12,19,00,52,0.00
2016,12,19,00,53,0.00
2016,12,19,00,54,0.00
2016,12,19,00,55,0.00
2016,12,19,00,56,0.00
2016,12,19,00,57,0.00
2016,12,19,00,58,0.00
2016,12,19,00,59,0.00
2016,12,19,01,00,0.00
2016,12,19,01,01,0.00
2016,12,19,01,02,0.00
2016,12,19,01,03,0.00
2016,12,19,01,04,0.00
2016,12,19,01,05,0.00
2016,12,19,01,06,0.00
2016,12,19,01,07,0.00
2016,12,19,01,08,0.00
2016,12,19,01,09,0.00
2016,12,19,01,10,0.00
2016,12,19,01,11,0.00
2016,12,19,01,12,0.00
2016,12,19,01,13,0.00
2016,12,19,01,14,0.00
2016,12,19,01,15,0.00
2016,12,19,01,16,0.00
2016,12,19,01,17,0.00
2016,12,19,01,18,0.00
2016,12,19,01,19,0.00
2016,12,19,01,20,0.00
2016,12,19,01,21,0.00
2016,12,19,01,22,0.00
2016,12,19,01,23,0.00
2016,12,19,01,24,0.00
2016,12,19,01,25,0.00
2016,12,19,01,26,0.00
2016,12,19,01,27,0.00
2016,12,19,01,28,0.00
2016,12,19,01,29,0.00
2016,12,19,01,30,0.00
2016,12,19,01,31,0.00
2016,12,19,01,32,0.00
2016,12,19,01,33,0.00
2016,12,19,01,34,0.00
2016,12,19,01,35,0.00
2016,12,19,01,36,0.00
2016,12,19,01,37,0.00
2016,12,19,01,38,0.00
2016,12,19,01,39,0.00
2016,12,19,01,40,0.00
2016,12,19,01,41,0.00
2016,12,19,01,42,0.00
2016,12,19,01,43,0.00
2016,12,19,01,44,0.00
2016,12,19,01,45,0.00
2016,12,19,01,46,0.00
2016,12,19,01,47,0.00
2016,12,19,01,48,0.00
2016,12,19,01,49,0.00
2016,12,19,01,50,0.00
2016,12,19,01,51,0.00
2016,12,19,01,52,0.00
2016,12,19,01,53,0.00
2016,12,19,01,54,0.00
2016,12,19,01,55,0.00
2016,12,19,01,56,0.00
2016,12,19,01,57,0.00
2016,12,19,01,58,0.00
2016,12,19,01,59,0.00
2016,12,19,02,00,0.00
2016,12,19,02,01,0.00
2016,12,19,02,02,0.00
2016,12,19,02,03,0.00
2016,12,19,02,04,0.00
2016,12,19,02,05,0.00
2016,12,19,02,06,0.00
2016,12,19,02,07,0.00
2016,12,19,02,08,0.00
2016,12,19,02,09,0.00
2016,12,19,02,10,0.00
2016,12,19,02,11,0.00
2016,12,19,02,12,0.00
2016,12,19,02,13,0.00
2016,12,19,02,14,0.00
2016,12,19,02,15,0.00
2016,12,19,02,16,0.00
2016,12,19,02,17,0.00
2016,12,19,02,18,0.00
2016,12,19,02,19,0.00
2016,12,19,02,20,0.00
2016,12,19,02,21,0.00
2016,12,19,02,22,0.00
2016,12,19,02,23,0.00
2016,12,19,02,24,0.00
2016,12,19,02,25,0.00
2016,12,19,02,26,0.00
2016,12,19,02,27,0.00
2016,12,19,02,28,0.00
2016,12,19,02,29,0.00
2016,12,19,02,30,0.00
2016,12,19,02,31,0.00
2016,12,19,02,32,0.00
2016,12,19,02,33,0.00
2016,12,19,02,34,0.00
2016,12,19,02,35,0.00
2016,12,19,02,36,0.00
2016,12,19,02,37,0.00
2016,12,19,02,38,0.00
2016,12,19,02,39,0.00
2016,12,19,02,40,0.00
2016,12,19,02,41,0.00
2016,12,19,02,42,0.00
2016,12,19,02,43,0.00
2016,12,19,02,44,0.00
2016,12,19,02,45,0.00
2016,12,19,02,46,0.00
2016,12,19,02,47,0.00
2016,12,19,02,48,0.00
2016,12,19,02,49,0.00
2016,12,19,02,50,0.00
2016,12,19,02,51,0.00
2016,12,19,02,52,0.00
2016,12,19,02,53,0.00
2016,12,19,02,54,0.00
2016,12,19,02,55,0.00
2016,12,19,02,56,0.00
2016,12,19,02,57,0.00
2016,12,19,02,58,0.00
2016,12,19,02,59,0.00
2016,12,19,03,00,0.00
2016,12,19,03,01,0.00
2016,12,19,03,02,0.00
2016,12,19,03,03,0.00
2016,12,19,03,04,0.00
2016,12,19,03,05,0.00
2016,12,19,03,06,0.00
2016,12,19,03,07,0.00
2016,12,19,03,08,0.00
2016,12,19,03,09,0.00
2016,12,19,03,10,0.00
2016,12,19,03,11,0.00
2016,12,19,03,12,0.00
2016,12,19,03,13,0.00
2016,12,19,03,14,0.00
2016,12,19,03,15,0.00
2016,12,19,03,16,0.00
2016,12,19,03,17,0.00
2016,12,19,03,18,0.00
2016,12,19,03,19,0.00
2016,12,19,03,20,0.00
2016,12,19,03,21,0.00
2016,12,19,03,22,0.00
2016,12,19,03,23,0.00
2016,12,19,03,24,0.00
2016,12,19,03,25,0.00
2016,12,19,03,26,0.00
2016,12,19,03,27,0.00
2016,12,19,03,28,0.00
2016,12,19,03,29,0.00
2016,12,19,03,30,0.00
2016,12,19,03,31,0.00
2016,12,19,03,32,0.00
2016,12,19,03,33,0.00
2016,12,19,03,34,0.00
2016,12,19,03,35,0.00
2016,12,19,03,36,0.00
2016,12,19,03,37,0.00
2016,12,19,03,38,0.00
2016,12,19,03,39,0.00
2016,12,19,03,40,0.00
2016,12,19,03,41,0.00
2016,12,19,03,42,0.00
2016,12,19,03,43,0.00
2016,12,19,03,44,0.00
2016,12,19,03,45,0.00
2016,12,19,03,46,0.00
2016,12,19,03,47,0.00
2016,12,19,03,48,0.00
2016,12,19,03,49,0.00
2016,12,19,03,50,0.00
2016,12,19,03,51,0.00
2016,12,19,03,52,0.00
2016,12,19,03,53,0.00
2016,12,19,03,54,0.00
2016,12,19,03,55,0.00
2016,12,19,03,56,0.00
2016,12,19,03,57,0.00
2016,12,19,03,58,0.00
2016,12,19,03,59,0.00
2016,12,19,04,00,0.00
2016,12,19,04,01,0.00
2016,12,19,04,02,0.00
2016,12,19,04,03,0.00
2016,12,19,04,04,0.00
2016,12,19,04,05,0.00
2016,12,19,04,06,0.00
2016,12,19,04,07,0.00
2016,12,19,04,08,0.00
2016,12,19,04,09,0.00
2016,12,19,04,10,0.00
2016,12,19,04,11,0.00
2016,12,19,04,12,0.00
2016,12,19,04,13,0.00
2016,12,19,04,14,0.00
2016,12,19,04,15,0.00
2016,12,19,04,16,0.00
2016,12,19,04,17,0.00
2016,12,19,04,18,0.00
2016,12,19,04,19,0.00
2016,12,19,04,20,0.00
2016,12,19,04,21,0.00
2016,12,19,04,22,0.00
2016,12,19,04,23,0.00
2016,12,19,04,24,0.00
2016,12,19,04,25,0.00
2016,12,19,04,26,0.00
2016,12,19,04,27,0.00
2016,12,19,04,28,0.00
2016,12,19,04,29,0.00
2016,12,19,04,30,0.00
2016,12,19,04,31,0.00
2016,12,19,04,32,0.00
2016,12,19,04,33,0.00
2016,12,19,04,34,0.00
2016,12,19,04,35,0.00
2016,12,19,04,36,0.00
2016,12,19,04,37,0.00
2016,12,19,04,38,0.00
2016,12,19,04,39,0.00
2016,12,19,04,40,0.00
2016,12,19,04,41,0.00
2016,12,19,04,42,0.00
2016,12,19,04,43,0.00
2016,12,19,04,44,0.00
2016,12,19,04,45,0.00
2016,12,19,04,46,0.00
2016,12,19,04,47,0.00
2016,12,19,04,48,0.00
2016,12,19,04,49,0.00
2016,12,19,04,50,0.00
2016,12,19,04,51,0.00
2016,12,19,04,52,0.00
2016,12,19,04,53,0.00
2016,12,19,04,54,0.00
2016,12,19,04,55,0.00
2016,12,19,04,56,0.00
2016,12,19,04,57,0.00
2016,12,19,04,58,0.00
2016,12,19,04,59,0.00
2016,12,19,05,00,0.00
2016,12,19,05,01,0.00
2016,12,19,05,02,0.00
2016,12,19,05,03,0.00
2016,12,19,05,04,0.00
2016,12,19,05,05,0.00
2016,12,19,05,06,0.00
2016,12,19,05,07,0.00
2016,12,19,05,08,0.00
2016,12,19,05,09,0.00
2016,12,19,05,10,0.00
2016,12,19,05,11,0.00
2016,12,19,05,12,0.00
2016,12,19,05,13,0.00
2016,12,19,05,14,0.00
2016,12,19,05,15,0.00
2016,12,19,05,16,0.00
2016,12,19,05,17,0.00
2016,12,19,05,18,0.00
2016,12,19,05,19,0.00
2016,12,19,05,20,0.00
2016,12,19,05,21,0.00
2016,12,19,05,22,0.00
2016,12,19,05,23,0.00
2016,12,19,05,24,0.00
2016,12,19,05,25,0.00
2016,12,19,05,26,0.00
2016,12,19,05,27,0.00
2016,12,19,05,28,0.00
2016,12,19,05,29,0.00
2016,12,19,05,30,0.00
2016,12,19,05,31,0.00
2016,12,19,05,32,0.00
2016,12,19,05,33,0.00
2016,12,19,05,34,0.00
2016,12,19,05,35,0.00
2016,12,19,05,36,0.00
2016,12,19,05,37,0.00
2016,12,19,05,38,0.00
2016,12,19,05,39,0.00
2016,12,19,05,40,0.00
2016,12,19,05,41,0.00
2016,12,19,05,42,0.00
2016,12,19,05,43,0.00
2016,12,19,05,44,0.00
2016,12,19,05,45,0.00
2016,12,19,05,46,0.00
2016,12,19,05,47,0.00
2016,12,19,05,48,0.00
2016,12,19,05,49,0.00
2016,12,19,05,50,0.00
2016,12,19,05,51,0.00
2016,12,19,05,52,0.00
2016,12,19,05,53,0.00
2016,12,19,05,54,0.00
2016,12,19,05,55,0.00
2016,12,19,05,56,0.00
2016,12,19,05,57,0.00
2016,12,19,05,58,0.00
2016,12,19,05,59,0.00
2016,12,19,06,00,0.00
2016,12,19,06,01,0.00
2016,12,19,06,02,0.00
2016,12,19,06,03,0.00
2016,12,19,06,04,0.00
2016,12,19,06,05,0.00
2016,12,19,06,06,0.00
2016,12,19,06,07,0.00
2016,12,19,06,08,0.00
2016,12,19,06,09,0.00
2016,12,19,06,10,0.00
2016,12,19,06,11,0.00
2016,12,19,06,12,0.00
2016,12,19,06,13,0.00
2016,12,19,06,14,0.00
2016,12,19,06,15,0.00
2016,12,19,06,16,0.00
2016,12,19,06,17,0.00
2016,12,19,06,18,0.00
2016,12,19,06,19,0.00
2016,12,19,06,20,0.00
2016,12,19,06,21,0.00
2016,12,19,06,22,0.00
2016,12,19,06,23,0.00
2016,12,19,06,24,0.00
2016,12,19,06,25,0.00
2016,12,19,06,26,0.00
2016,12,19,06,27,0.00
2016,12,19,06,28,0.00
2016,12,19,06,29,0.00
2016,12,19,06,30,0.00
2016,12,19,06,31,0.00
2016,12,19,06,32,0.00
2016,12,19,06,33,0.00
2016,12,19,06,34,0.00
2016,12,19,06,35,0.00
2016,12,19,06,36,0.00
2016,12,19,06,37,0.00
2016,12,19,06,38,0.00
2016,12,19,06,39,0.00
2016,12,19,06,40,0.00
2016,12,19,06,41,0.00
2016,12,19,06,42,0.00
2016,12,19,06,43,0.00
2016,12,19,06,44,0.00
2016,12,19,06,45,0.00
2016,12,19,06,46,0.00
2016,12,19,06,47,0.00
2016,12,19,06,48,0.00
2016,12,19,06,49,0.00
2016,12,19,06,50,0.00
2016,12,19,06,51,0.00
2016,12,19,06,52,0.00
2016,12,19,06,53,0.00
2016,12,19,06,54,0.00
2016,12,19,06,55,0.00
2016,12,19,06,56,0.00
2016,12,19,06,57,0.00
2016,12,19,06,58,0.00
2016,12,19,06,59,0.00
2016,12,19,07,00,0.00
2016,12,19,07,01,0.00
2016,12,19,07,02,0.00
2016,12,19,07,03,0.00
2016,12,19,07,04,0.00
2016,12,19,07,05,0.00
2016,12,19,07,06,0.00
2016,12,19,07,07,0.00
2016,12,19,07,08,0.00
2016,12,19,07,09,0.00
2016,12,19,07,10,0.00
2016,12,19,07,11,0.00
2016,12,19,07,12,0.00
2016,12,19,07,13,0.00
2016,12,19,07,14,0.00
2016,12,19,07,15,0.00
2016,12,19,07,16,0.00
2016,12,19,07,17,0.00
2016,12,19,07,18,0.00
2016,12,19,07,19,0.00
2016,12,19,07,20,0.00
2016,12,19,07,21,0.00
2016,12,19,07,22,0.00
2016,12,19,07,23,0.00
2016,12,19,07,24,0.00
2016,12,19,07,25,0.00
2016,12,19,07,26,0.00
2016,12,19,07,27,0.00
2016,12,19,07,28,0.00
2016,12,19,07,29,0.00
2016,12,19,07,30,0.00
2016,12,19,07,31,0.00
2016,12,19,07,32,0.00
2016,12,19,07,33,0.00
2016,12,19,07,34,0.00
2016,12,19,07,35,0.00
2016,12,19,07,36,0.00
2016,12,19,07,37,0.00
2016,12,19,07,38,0.00
2016,12,19,07,39,0.00
2016,12,19,07,40,0.00
2016,12,19,07,41,0.00
2016,12,19,07,42,0.00
2016,12,19,07,43,0.00
2016,12,19,07,44,0.00
2016,12,19,07,45,0.00
2016,12,19,07,46,0.00
2016,12,19,07,47,0.00
2016,12,19,07,48,0.00
2016,12,19,07,49,0.00
2016,12,19,07,50,0.00
2016,12,19,07,51,0.00
2016,12,19,07,52,0.00
2016,12,19,07,53,0.00
2016,12,19,07,54,0.00
2016,12,19,07,55,0.00
2016,12,19,07,56,0.00
2016,12,19,07,57,0.00
2016,12,19,07,58,0.00
2016,12,19,07,59,0.00
2016,12,19,08,00,0.00
2016,12,19,08,01,0.00
2016,12,19,08,02,0.00
2016,12,19,08,03,0.00
2016,12,19,08,04,0.00
2016,12,19,08,05,0.00
2016,12,19,08,06,0.00
2016,12,19,08,07,0.00
2016,12,19,08,08,0.00
2016,12,19,08,09,0.00
2016,12,19,08,10,0.00
2016,12,19,08,11,0.00
2016,12,19,08,12,0.00
2016,12,19,08,13,0.00
2016,12,19,08,14,0.00
2016,12,19,08,15,0.00
2016,12,19,08,16,0.00
2016,12,19,08,17,0.00
2016,12,19,08,18,0.00
2016,12,19,08,19,0.00
2016,12,19,08,20,0.00
2016,12,19,08,21,0.00
2016,12,19,08,22,0.00
2016,12,19,08,23,0.00
2016,12,19,08,24,0.00
2016,12,19,08,25,0.00
2016,12,19,08,26,0.00
2016,12,19,08,27,0.00
2016,12,19,08,28,0.00
2016,12,19,08,29,0.00
2016,12,19,08,30,0.00
2016,12,19,08,31,0.00
2016,12,19,08,32,1.20
2016,12,19,08,33,5.00
2016,12,19,08,34,2.20
2016,12,19,08,35,0.00
2016,12,19,08,36,4.20
2016,12,19,08,37,5.00
2016,12,19,08,38,5.00
2016,12,19,08,39,5.90
2016,12,19,08,40,7.00
2016,12,19,08,41,7.00
2016,12,19,08,42,10.20
2016,12,19,08,43,12.90
2016,12,19,08,44,18.80
2016,12,19,08,45,22.80
2016,12,19,08,46,25.60
2016,12,19,08,47,27.40
2016,12,19,08,48,31.40
2016,12,19,08,49,35.30
2016,12,19,08,50,37.00
2016,12,19,08,51,37.00
2016,12,19,08,52,35.80
2016,12,19,08,53,33.50
2016,12,19,08,54,32.10
2016,12,19,08,55,30.00
2016,12,19,08,56,30.00
2016,12,19,08,57,30.00
2016,12,19,08,58,30.00
2016,12,19,08,59,30.00
2016,12,19,09,00,31.80
2016,12,19,09,01,32.00
2016,12,19,09,02,32.00
2016,12,19,09,03,32.00
2016,12,19,09,04,32.00
2016,12,19,09,05,32.80
2016,12,19,09,06,34.90
2016,12,19,09,07,36.00
2016,12,19,09,08,39.40
2016,12,19,09,09,41.10
2016,12,19,09,10,42.00
2016,12,19,09,11,42.00
2016,12,19,09,12,42.00
2016,12,19,09,13,42.00
2016,12,19,09,14,42.00
2016,12,19,09,15,43.10
2016,12,19,09,16,45.40
2016,12,19,09,17,46.00
2016,12,19,09,18,46.00
2016,12,19,09,19,46.30
2016,12,19,09,20,47.80
2016,12,19,09,21,50.10
2016,12,19,09,22,52.40
2016,12,19,09,23,55.70
2016,12,19,09,24,58.00
2016,12,19,09,25,58.50
2016,12,19,09,26,60.90
2016,12,19,09,27,63.80
2016,12,19,09,28,68.70
2016,12,19,09,29,73.40
2016,12,19,09,30,77.30
2016,12,19,09,31,79.00
2016,12,19,09,32,80.80
2016,12,19,09,33,87.20
2016,12,19,09,34,88.50
2016,12,19,09,35,79.90
2016,12,19,09,36,73.60
2016,12,19,09,37,72.70
2016,12,19,09,38,77.30
2016,12,19,09,39,82.80
2016,12,19,09,40,83.20
2016,12,19,09,41,78.90
2016,12,19,09,42,74.40
2016,12,19,09,43,81.20
2016,12,19,09,44,85.30
2016,12,19,09,45,71.80
2016,12,19,09,46,65.50
2016,12,19,09,47,72.20
2016,12,19,09,48,70.20
2016,12,19,09,49,90.40
2016,12,19,09,50,99.00
2016,12,19,09,51,96.80
2016,12,19,09,52,86.20
2016,12,19,09,53,79.10
2016,12,19,09,54,83.20
2016,12,19,09,55,51.20
2016,12,19,09,56,50.30
2016,12,19,09,57,61.40
2016,12,19,09,58,76.20
2016,12,19,09,59,81.50
2016,12,19,10,00,84.20
2016,12,19,10,01,81.00
2016,12,19,10,02,85.10
2016,12,19,10,03,81.20
2016,12,19,10,04,60.60
2016,12,19,10,05,71.60
2016,12,19,10,06,86.00
2016,12,19,10,07,86.00
2016,12,19,10,08,83.20
2016,12,19,10,09,79.60
2016,12,19,10,10,79.20
2016,12,19,10,11,84.00
2016,12,19,10,12,88.90
2016,12,19,10,13,91.90
2016,12,19,10,14,93.00
2016,12,19,10,15,95.80
2016,12,19,10,16,97.00
2016,12,19,10,17,96.10
2016,12,19,10,18,91.00
2016,12,19,10,19,89.50
2016,12,19,10,20,88.00
2016,12,19,10,21,84.10
2016,12,19,10,22,83.70
2016,12,19,10,23,78.40
2016,12,19,10,24,76.90
2016,12,19,10,25,81.50
2016,12,19,10,26,87.90
2016,12,19,10,27,90.00
2016,12,19,10,28,89.40
2016,12,19,10,29,82.30
2016,12,19,10,30,77.80
2016,12,19,10,31,81.00
2016,12,19,10,32,85.60
2016,12,19,10,33,84.80
2016,12,19,10,34,103.20
2016,12,19,10,35,139.50
2016,12,19,10,36,152.10
2016,12,19,10,37,141.50
2016,12,19,10,38,125.60
2016,12,19,10,39,147.20
2016,12,19,10,40,165.40
2016,12,19,10,41,141.20
2016,12,19,10,42,137.20
2016,12,19,10,43,124.20
2016,12,19,10,44,118.60
2016,12,19,10,45,76.30
2016,12,19,10,46,77.80
2016,12,19,10,47,146.70
2016,12,19,10,48,201.80
2016,12,19,10,49,193.40
2016,12,19,10,50,168.00
2016,12,19,10,51,208.60
2016,12,19,10,52,232.90
2016,12,19,10,53,214.40
2016,12,19,10,54,160.20
2016,12,19,10,55,109.00
2016,12,19,10,56,100.20
2016,12,19,10,57,155.60
2016,12,19,10,58,228.40
2016,12,19,10,59,234.60
2016,12,19,11,00,235.10
2016,12,19,11,01,232.80
2016,12,19,11,02,230.50
2016,12,19,11,03,230.20
2016,12,19,11,04,231.20
2016,12,19,11,05,225.40
2016,12,19,11,06,207.90
2016,12,19,11,07,187.90
2016,12,19,11,08,181.40
2016,12,19,11,09,162.80
2016,12,19,11,10,110.80
2016,12,19,11,11,89.80
2016,12,19,11,12,110.50
2016,12,19,11,13,116.10
2016,12,19,11,14,90.00
2016,12,19,11,15,62.50
2016,12,19,11,16,55.50
2016,12,19,11,17,55.60
2016,12,19,11,18,61.70
2016,12,19,11,19,60.50
2016,12,19,11,20,54.80
2016,12,19,11,21,54.30
2016,12,19,11,22,56.50
2016,12,19,11,23,58.00
2016,12,19,11,24,60.20
2016,12,19,11,25,62.70
2016,12,19,11,26,66.20
2016,12,19,11,27,70.60
2016,12,19,11,28,77.80
2016,12,19,11,29,83.40
2016,12,19,11,30,85.20
2016,12,19,11,31,88.90
2016,12,19,11,32,94.20
2016,12,19,11,33,97.80
2016,12,19,11,34,95.70
2016,12,19,11,35,93.90
2016,12,19,11,36,96.20
2016,12,19,11,37,100.70
2016,12,19,11,38,104.60
2016,12,19,11,39,109.80
2016,12,19,11,40,114.10
2016,12,19,11,41,116.90
2016,12,19,11,42,119.20
2016,12,19,11,43,122.20
2016,12,19,11,44,124.90
2016,12,19,11,45,125.40
2016,12,19,11,46,127.00
2016,12,19,11,47,127.00
2016,12,19,11,48,127.00
2016,12,19,11,49,125.40
2016,12,19,11,50,121.30
2016,12,19,11,51,119.20
2016,12,19,11,52,115.20
2016,12,19,11,53,113.40
2016,12,19,11,54,113.70
2016,12,19,11,55,111.60
2016,12,19,11,56,108.70
2016,12,19,11,57,104.70
2016,12,19,11,58,103.20
2016,12,19,11,59,99.90
2016,12,19,12,00,97.30
2016,12,19,12,01,97.00
2016,12,19,12,02,97.10
2016,12,19,12,03,98.00
2016,12,19,12,04,97.60
2016,12,19,12,05,97.00
2016,12,19,12,06,97.00
2016,12,19,12,07,97.80
2016,12,19,12,08,100.60
2016,12,19,12,09,105.50
2016,12,19,12,10,105.80
2016,12,19,12,11,99.70
2016,12,19,12,12,95.90
2016,12,19,12,13,90.70
2016,12,19,12,14,97.70
2016,12,19,12,15,131.80
2016,12,19,12,16,169.00
2016,12,19,12,17,191.90
2016,12,19,12,18,215.50
2016,12,19,12,19,222.00
2016,12,19,12,20,234.60
2016,12,19,12,21,221.20
2016,12,19,12,22,176.00
2016,12,19,12,23,127.30
2016,12,19,12,24,145.00
2016,12,19,12,25,170.40
2016,12,19,12,26,178.00
2016,12,19,12,27,169.90
2016,12,19,12,28,157.80
2016,12,19,12,29,164.20
2016,12,19,12,30,168.60
2016,12,19,12,31,175.40
2016,12,19,12,32,170.00
2016,12,19,12,33,154.80
2016,12,19,12,34,135.10
2016,12,19,12,35,119.80
2016,12,19,12,36,116.00
2016,12,19,12,37,119.80
2016,12,19,12,38,118.70
2016,12,19,12,39,114.00
2016,12,19,12,40,121.00
2016,12,19,12,41,137.10
2016,12,19,12,42,149.20
2016,12,19,12,43,147.60
2016,12,19,12,44,155.00
2016,12,19,12,45,157.00
2016,12,19,12,46,161.60
2016,12,19,12,47,160.90
2016,12,19,12,48,174.60
2016,12,19,12,49,164.20
2016,12,19,12,50,157.10
2016,12,19,12,51,145.00
2016,12,19,12,52,140.60
2016,12,19,12,53,133.20
2016,12,19,12,54,119.70
2016,12,19,12,55,113.50
2016,12,19,12,56,110.40
2016,12,19,12,57,109.00
2016,12,19,12,58,103.60
2016,12,19,12,59,94.80
2016,12,19,13,00,90.10
2016,12,19,13,01,85.40
2016,12,19,13,02,81.70
2016,12,19,13,03,85.30
2016,12,19,13,04,98.40
2016,12,19,13,05,107.20
2016,12,19,13,06,106.00
2016,12,19,13,07,94.20
2016,12,19,13,08,98.00
2016,12,19,13,09,130.00
2016,12,19,13,10,145.80
2016,12,19,13,11,147.20
2016,12,19,13,12,160.50
2016,12,19,13,13,170.60
2016,12,19,13,14,154.60
2016,12,19,13,15,128.00
2016,12,19,13,16,151.80
2016,12,19,13,17,193.20
2016,12,19,13,18,211.30
2016,12,19,13,19,185.60
2016,12,19,13,20,172.40
2016,12,19,13,21,180.10
2016,12,19,13,22,162.30
2016,12,19,13,23,140.40
2016,12,19,13,24,98.90
2016,12,19,13,25,72.00
2016,12,19,13,26,76.80
2016,12,19,13,27,97.80
2016,12,19,13,28,115.30
2016,12,19,13,29,116.30
2016,12,19,13,30,121.10
2016,12,19,13,31,134.20
2016,12,19,13,32,151.80
2016,12,19,13,33,149.10
2016,12,19,13,34,138.30
2016,12,19,13,35,138.50
2016,12,19,13,36,141.00
2016,12,19,13,37,137.10
2016,12,19,13,38,124.80
2016,12,19,13,39,115.00
2016,12,19,13,40,93.80
2016,12,19,13,41,83.60
2016,12,19,13,42,84.40
2016,12,19,13,43,86.60
2016,12,19,13,44,88.00
2016,12,19,13,45,88.00
2016,12,19,13,46,88.00
2016,12,19,13,47,88.00
2016,12,19,13,48,88.40
2016,12,19,13,49,90.30
2016,12,19,13,50,91.00
2016,12,19,13,51,91.00
2016,12,19,13,52,90.20
2016,12,19,13,53,86.20
2016,12,19,13,54,82.60
2016,12,19,13,55,81.00
2016,12,19,13,56,81.00
2016,12,19,13,57,81.00
2016,12,19,13,58,81.00
2016,12,19,13,59,79.10
2016,12,19,14,00,78.50
2016,12,19,14,01,77.00
2016,12,19,14,02,77.00
2016,12,19,14,03,76.30
2016,12,19,14,04,76.00
2016,12,19,14,05,76.00
2016,12,19,14,06,76.00
2016,12,19,14,07,76.00
2016,12,19,14,08,76.00
2016,12,19,14,09,76.00
2016,12,19,14,10,76.00
2016,12,19,14,11,75.70
2016,12,19,14,12,74.00
2016,12,19,14,13,74.00
2016,12,19,14,14,72.90
2016,12,19,14,15,70.50
2016,12,19,14,16,69.10
2016,12,19,14,17,68.70
2016,12,19,14,18,67.00
2016,12,19,14,19,67.00
2016,12,19,14,20,67.00
2016,12,19,14,21,67.00
2016,12,19,14,22,66.90
2016,12,19,14,23,64.60
2016,12,19,14,24,63.00
2016,12,19,14,25,63.00
2016,12,19,14,26,62.40
2016,12,19,14,27,60.50
2016,12,19,14,28,58.00
2016,12,19,14,29,55.60
2016,12,19,14,30,54.00
2016,12,19,14,31,53.50
2016,12,19,14,32,53.00
2016,12,19,14,33,53.00
2016,12,19,14,34,53.00
2016,12,19,14,35,53.20
2016,12,19,14,36,54.00
2016,12,19,14,37,54.00
2016,12,19,14,38,54.00
2016,12,19,14,39,53.20
2016,12,19,14,40,50.70
2016,12,19,14,41,46.80
2016,12,19,14,42,45.20
2016,12,19,14,43,45.10
2016,12,19,14,44,46.00
2016,12,19,14,45,46.00
2016,12,19,14,46,45.70
2016,12,19,14,47,43.50
2016,12,19,14,48,41.20
2016,12,19,14,49,39.50
2016,12,19,14,50,39.00
2016,12,19,14,51,39.00
2016,12,19,14,52,38.80
2016,12,19,14,53,37.00
2016,12,19,14,54,37.00
2016,12,19,14,55,37.00
2016,12,19,14,56,35.60
2016,12,19,14,57,35.00
2016,12,19,14,58,33.00
2016,12,19,14,59,33.00
2016,12,19,15,00,32.50
2016,12,19,15,01,32.00
2016,12,19,15,02,30.50
2016,12,19,15,03,29.90
2016,12,19,15,04,27.60
2016,12,19,15,05,26.00
2016,12,19,15,06,25.50
2016,12,19,15,07,25.00
2016,12,19,15,08,23.50
2016,12,19,15,09,23.00
2016,12,19,15,10,22.60
2016,12,19,15,11,21.00
2016,12,19,15,12,22.00
2016,12,19,15,13,23.00
2016,12,19,15,14,23.00
2016,12,19,15,15,21.00
2016,12,19,15,16,19.00
2016,12,19,15,17,19.80
2016,12,19,15,18,21.00
2016,12,19,15,19,21.00
2016,12,19,15,20,21.00
2016,12,19,15,21,19.00
2016,12,19,15,22,18.00
2016,12,19,15,23,18.00
2016,12,19,15,24,18.50
2016,12,19,15,25,19.00
2016,12,19,15,26,19.00
2016,12,19,15,27,18.90
2016,12,19,15,28,18.00
2016,12,19,15,29,17.20
2016,12,19,15,30,16.00
2016,12,19,15,31,14.60
2016,12,19,15,32,15.70
2016,12,19,15,33,16.00
2016,12,19,15,34,15.50
2016,12,19,15,35,14.00
2016,12,19,15,36,14.00
2016,12,19,15,37,14.00
2016,12,19,15,38,12.30
2016,12,19,15,39,11.80
2016,12,19,15,40,11.00
2016,12,19,15,41,11.00
2016,12,19,15,42,11.00
2016,12,19,15,43,11.00
2016,12,19,15,44,10.90
2016,12,19,15,45,9.00
2016,12,19,15,46,9.00
2016,12,19,15,47,9.00
2016,12,19,15,48,10.30
2016,12,19,15,49,11.00
2016,12,19,15,50,9.20
2016,12,19,15,51,8.60
2016,12,19,15,52,7.00
2016,12,19,15,53,7.00
2016,12,19,15,54,7.00
2016,12,19,15,55,7.00
2016,12,19,15,56,7.00
2016,12,19,15,57,7.00
2016,12,19,15,58,6.30
2016,12,19,15,59,5.00
2016,12,19,16,00,5.00
2016,12,19,16,01,5.00
2016,12,19,16,02,4.50
2016,12,19,16,03,0.00
2016,12,19,16,04,0.00
2016,12,19,16,05,0.00
2016,12,19,16,06,0.00
2016,12,19,16,07,0.00
2016,12,19,16,08,0.00
2016,12,19,16,09,0.00
2016,12,19,16,10,0.00
2016,12,19,16,11,0.00
2016,12,19,16,12,0.00
2016,12,19,16,13,0.00
2016,12,19,16,14,0.00
2016,12,19,16,15,0.00
2016,12,19,16,16,0.00
2016,12,19,16,17,0.00
2016,12,19,16,18,0.00
2016,12,19,16,19,0.00
2016,12,19,16,20,0.00
2016,12,19,16,21,0.00
2016,12,19,16,22,0.00
2016,12,19,16,23,0.00
2016,12,19,16,24,0.00
2016,12,19,16,25,0.00
2016,12,19,16,26,0.00
2016,12,19,16,27,0.00
2016,12,19,16,28,0.00
2016,12,19,16,29,0.00
2016,12,19,16,30,0.00
2016,12,19,16,31,0.00
2016,12,19,16,32,0.00
2016,12,19,16,33,0.00
2016,12,19,16,34,0.00
2016,12,19,16,35,0.00
2016,12,19,16,36,0.00
2016,12,19,16,37,0.00
2016,12,19,16,38,0.00
2016,12,19,16,39,0.00
2016,12,19,16,40,0.00
2016,12,19,16,41,0.00
2016,12,19,16,42,0.00
2016,12,19,16,43,0.00
2016,12,19,16,44,0.00
2016,12,19,16,45,0.00
2016,12,19,16,46,0.00
2016,12,19,16,47,0.00
2016,12,19,16,48,0.00
2016,12,19,16,49,0.00
2016,12,19,16,50,0.00
2016,12,19,16,51,0.00
2016,12,19,16,52,0.00
2016,12,19,16,53,0.00
2016,12,19,16,54,0.00
2016,12,19,16,55,0.00
2016,12,19,16,56,0.00
2016,12,19,16,57,0.00
2016,12,19,16,58,0.00
2016,12,19,16,59,0.00
2016,12,19,17,00,0.00
2016,12,19,17,01,0.00
2016,12,19,17,02,0.00
2016,12,19,17,03,0.00
2016,12,19,17,04,0.00
2016,12,19,17,05,0.00
2016,12,19,17,06,0.00
2016,12,19,17,07,0.00
2016,12,19,17,08,0.00
2016,12,19,17,09,0.00
2016,12,19,17,10,0.00
2016,12,19,17,11,0.00
2016,12,19,17,12,0.00
2016,12,19,17,13,0.00
2016,12,19,17,14,0.00
2016,12,19,17,15,0.00
2016,12,19,17,16,0.00
2016,12,19,17,17,0.00
2016,12,19,17,18,0.00
2016,12,19,17,19,0.00
2016,12,19,17,20,0.00
2016,12,19,17,21,0.00
2016,12,19,17,22,0.00
2016,12,19,17,23,0.00
2016,12,19,17,24,0.00
2016,12,19,17,25,0.00
2016,12,19,17,26,0.00
2016,12,19,17,27,0.00
2016,12,19,17,28,0.00
2016,12,19,17,29,0.00
2016,12,19,17,30,0.00
2016,12,19,17,31,0.00
2016,12,19,17,32,0.00
2016,12,19,17,33,0.00
2016,12,19,17,34,0.00
2016,12,19,17,35,0.00
2016,12,19,17,36,0.00
2016,12,19,17,37,0.00
2016,12,19,17,38,0.00
2016,12,19,17,39,0.00
2016,12,19,17,40,0.00
2016,12,19,17,41,0.00